EW4113 Weather Reports


time (UTC)temp
C
wind
direction
speed
KPH
gust
KPH
rain 1hr
cm
rain 24hr
cm
rain mn
cm
humidity
%
barometer
mb
20260507151600 27 278 0.0 12.9 0.00 0.00 0.00 16 985.3
20260507150025 26 321 0.0 0.0 0.00 0.00 0.00 17 985.4
20260507144528 26 309 0.0 8.0 0.00 0.00 0.00 18 985.4
20260507143015 24 245 0.0 0.0 0.00 0.00 0.00 24 985.5
20260507141513 23 243 0.0 1.6 0.00 0.00 0.00 25 985.4
20260507140011 22 255 0.0 0.0 0.00 0.00 0.00 27 985.4
20260507134510 22 245 0.0 0.0 0.00 0.00 0.00 26 985.2
20260507133005 22 256 0.0 0.0 0.00 0.00 0.00 27 985.0
20260507131501 -17 0.0 0.0 0.00 0.00 0.00 984.9
20260507130108 -17 0.0 0.0 0.00 0.00 0.00 984.8
20260507124615 20 26 6.4 11.3 0.00 0.00 0.00 30 984.7
20260507123102 -17 0.0 0.0 0.00 0.00 0.00 984.7
20260507121550 -17 0.0 0.0 0.00 0.00 0.00 984.7
20260507120039 -17 0.0 0.0 0.00 0.00 0.00 984.7
20260507114534 -17 0.0 0.0 0.00 0.00 0.00 984.9
20260507113025 -17 0.0 0.0 0.00 0.00 0.00 985.1
20260507111521 -17 0.0 0.0 0.00 0.00 0.00 985.2
20260507110023 -17 0.0 0.0 0.00 0.00 0.00 985.3
20260507104515 -17 0.0 0.0 0.00 0.00 0.00 985.4
20260507103006 -17 0.0 0.0 0.00 0.00 0.00 985.3
20260507101503 -17 0.0 0.0 0.00 0.00 0.00 985.5
20260507100001 20 247 0.0 0.0 0.00 0.00 0.00 35 985.5
20260507094559 19 288 0.0 0.0 0.00 0.00 0.00 37 985.5
20260507093100 19 236 0.0 0.0 0.00 0.00 0.00 34 985.4
20260507091557 18 260 0.0 1.6 0.00 0.00 0.00 34 985.5
20260507090054 18 246 0.0 0.0 0.00 0.00 0.00 35 985.5
20260507084556 18 257 0.0 0.0 0.00 0.00 0.00 35 985.6
20260507083103 19 257 0.0 0.0 0.00 0.00 0.00 32 985.6
20260507081552 19 241 0.0 0.0 0.00 0.00 0.00 33 985.7
20260507080042 19 256 0.0 0.0 0.00 0.00 0.00 34 985.7
20260507074541 19 249 0.0 0.0 0.00 0.00 0.00 36 985.8
20260507073010 19 250 0.0 0.0 0.00 0.00 0.00 35 985.9
20260507071512 19 255 0.0 0.0 0.00 0.00 0.00 37 985.7
20260507070042 19 245 0.0 0.0 0.00 0.00 0.00 39 985.8
20260507064541 20 245 0.0 0.0 0.00 0.00 0.00 34 985.7
20260507063041 21 195 0.0 0.0 0.00 0.00 0.00 29 985.6
20260507061536 21 155 0.0 0.0 0.00 0.00 0.00 28 985.7
20260507060034 21 96 0.0 0.0 0.00 0.00 0.00 29 985.6
20260507054540 21 84 0.0 0.0 0.00 0.00 0.00 30 985.6
20260507053034 22 138 0.0 0.0 0.00 0.00 0.00 29 985.7
20260507051530 22 119 0.0 0.0 0.00 0.00 0.00 28 985.7
20260507050035 22 120 0.0 0.0 0.00 0.00 0.00 29 985.6
20260507044536 22 115 0.0 0.0 0.00 0.00 0.00 30 985.5
20260507043028 22 91 0.0 0.0 0.00 0.00 0.00 33 985.4
20260507041531 22 91 0.0 0.0 0.00 0.00 0.00 35 985.3
20260507040024 22 89 0.0 0.0 0.00 0.00 0.00 32 985.0
20260507034525 23 115 0.0 0.0 0.00 0.00 0.00 30 984.8
20260507033028 23 122 0.0 0.0 0.00 0.00 0.00 26 984.7
20260507031527 24 97 0.0 0.0 0.00 0.00 0.00 26 984.5
20260507030022 25 103 0.0 0.0 0.00 0.00 0.00 24 984.2
20260507024523 25 102 0.0 0.0 0.00 0.00 0.00 24 984.1
20260507023021 25 69 0.0 0.0 0.00 0.00 0.00 24 983.9
20260507021517 26 100 0.0 0.0 0.00 0.00 0.00 23 983.8
20260507020016 26 85 0.0 0.0 0.00 0.00 0.00 22 983.8
20260507014519 27 118 0.0 0.0 0.00 0.00 0.00 21 983.7
20260507013022 27 102 0.0 1.6 0.00 0.00 0.00 22 983.7
20260507011544 27 135 0.0 0.0 0.00 0.00 0.00 21 983.7
20260507010044 27 82 0.0 1.6 0.00 0.00 0.00 22 983.6
20260507004544 27 150 0.0 0.0 0.00 0.00 0.00 21 983.6
20260507003043 27 138 0.0 11.3 0.00 0.00 0.00 21 983.6
20260507001542 27 89 0.0 0.0 0.00 0.00 0.00 22 983.5
20260507000039 27 135 0.0 0.0 0.00 0.00 0.00 21 983.7
20260506234537 27 115 0.0 0.0 0.00 0.00 0.00 21 983.7
20260506233033 28 90 0.0 0.0 0.00 0.00 0.00 21 983.9
20260506231544 28 143 0.0 0.0 0.00 0.00 0.00 22 984.0
20260506230034 28 134 0.0 0.0 0.00 0.00 0.00 21 984.2
20260506224527 27 159 0.0 1.6 0.00 0.00 0.00 23 984.3
20260506223037 27 200 0.0 1.6 0.00 0.00 0.00 22 984.6
20260506221521 27 143 0.0 0.0 0.00 0.00 0.00 24 984.7
20260506220024 27 141 0.0 0.0 0.00 0.00 0.00 22 984.9
20260506214516 27 78 0.0 0.0 0.00 0.00 0.00 23 985.0
20260506213014 27 136 0.0 0.0 0.00 0.00 0.00 23 985.4
20260506211515 27 131 0.0 0.0 0.00 0.00 0.00 22 985.6
20260506210010 26 84 0.0 0.0 0.00 0.00 0.00 23 985.8
20260506204508 26 127 0.0 0.0 0.00 0.00 0.00 24 986.0
20260506203009 26 225 0.0 0.0 0.00 0.00 0.00 23 986.2
20260506201504 26 332 0.0 0.0 0.00 0.00 0.00 24 986.3
20260506200005 26 158 0.0 1.6 0.00 0.00 0.00 23 986.5
20260506194500 25 42 0.0 0.0 0.00 0.00 0.00 24 986.6
20260506193101 26 195 0.0 0.0 0.00 0.00 0.00 23 986.8
20260506191600 25 148 0.0 0.0 0.00 0.00 0.00 24 986.9
20260506190056 25 129 0.0 8.0 0.00 0.00 0.00 25 987.0
20260506184604 25 165 0.0 0.0 0.00 0.00 0.00 25 987.2
20260506183059 25 104 0.0 0.0 0.00 0.00 0.00 25 987.4
20260506181545 24 110 0.0 0.0 0.00 0.00 0.00 28 987.5
20260506180048 24 111 0.0 0.0 0.00 0.00 0.00 28 987.6
20260506174543 24 129 0.0 0.0 0.00 0.00 0.00 28 987.8
20260506173045 23 94 0.0 0.0 0.00 0.00 0.00 30 987.9
20260506171539 23 250 0.0 1.6 0.00 0.00 0.00 29 987.8
20260506170048 23 125 0.0 0.0 0.00 0.00 0.00 30 987.8
20260506164530 22 100 0.0 0.0 0.00 0.00 0.00 33 987.8
20260506163029 22 195 0.0 0.0 0.00 0.00 0.00 31 987.7
20260506161528 21 83 0.0 0.0 0.00 0.00 0.00 32 987.6
20260506160028 21 148 0.0 0.0 0.00 0.00 0.00 33 987.6
20260506154527 21 337 0.0 0.0 0.00 0.00 0.00 33 987.6
20260506153019 20 49 0.0 0.0 0.00 0.00 0.00 36 987.8